TimeEST,TemperatureF,Dew PointF,Humidity,Sea Level PressureIn,VisibilityMPH,Wind Direction,Wind SpeedMPH,Gust SpeedMPH,PrecipitationIn,Events,Conditions,WindDirDegrees,DateUTC
12:35 AM,46.9,32.0,56,29.97,10.0,SSW,3.5,-,N/A,,Overcast,210,2013-12-02 05:35:00
12:53 AM,46.9,30.9,54,29.97,10.0,Calm,Calm,-,N/A,,Overcast,0,2013-12-02 05:53:00
1:11 AM,46.9,30.9,54,29.96,10.0,Calm,Calm,-,N/A,,Overcast,0,2013-12-02 06:11:00
1:53 AM,46.0,32.0,58,29.95,10.0,Calm,Calm,-,N/A,,Overcast,0,2013-12-02 06:53:00
2:53 AM,45.0,30.9,58,29.94,10.0,SSW,3.5,-,N/A,,Overcast,210,2013-12-02 07:53:00
3:53 AM,45.0,30.9,58,29.92,10.0,Calm,Calm,-,N/A,,Mostly Cloudy,0,2013-12-02 08:53:00
4:53 AM,45.0,32.0,60,29.90,10.0,SSW,3.5,-,N/A,,Overcast,200,2013-12-02 09:53:00
5:53 AM,45.0,32.0,60,29.90,10.0,Calm,Calm,-,N/A,,Overcast,0,2013-12-02 10:53:00
6:53 AM,45.0,33.1,63,29.91,10.0,Calm,Calm,-,N/A,,Overcast,0,2013-12-02 11:53:00
7:53 AM,46.0,32.0,58,29.91,10.0,Calm,Calm,-,N/A,,Overcast,0,2013-12-02 12:53:00
8:53 AM,46.0,33.1,61,29.91,10.0,Calm,Calm,-,N/A,,Overcast,0,2013-12-02 13:53:00
9:53 AM,46.9,33.1,59,29.89,10.0,Calm,Calm,-,N/A,,Overcast,0,2013-12-02 14:53:00
10:53 AM,48.0,34.0,58,29.88,10.0,SSW,3.5,-,N/A,,Overcast,200,2013-12-02 15:53:00
11:53 AM,50.0,35.1,57,29.85,10.0,Calm,Calm,-,N/A,,Overcast,0,2013-12-02 16:53:00
12:53 PM,52.0,35.1,53,29.83,10.0,Calm,Calm,-,N/A,,Mostly Cloudy,0,2013-12-02 17:53:00
1:53 PM,53.1,36.0,52,29.81,10.0,SSE,3.5,-,N/A,,Overcast,160,2013-12-02 18:53:00
2:53 PM,53.1,37.0,55,29.80,10.0,South,3.5,-,N/A,,Overcast,170,2013-12-02 19:53:00
3:53 PM,53.1,37.0,55,29.79,10.0,Calm,Calm,-,N/A,,Overcast,0,2013-12-02 20:53:00
4:53 PM,52.0,37.0,57,29.79,10.0,Calm,Calm,-,N/A,,Mostly Cloudy,0,2013-12-02 21:53:00
5:53 PM,50.0,37.0,61,29.79,10.0,Calm,Calm,-,N/A,,Clear,0,2013-12-02 22:53:00
6:53 PM,50.0,37.0,61,29.80,10.0,SE,4.6,-,N/A,,Partly Cloudy,130,2013-12-02 23:53:00
7:53 PM,50.0,37.9,63,29.81,10.0,Calm,Calm,-,N/A,,Scattered Clouds,0,2013-12-03 00:53:00
8:53 PM,48.9,39.0,69,29.81,10.0,Calm,Calm,-,N/A,,Clear,0,2013-12-03 01:53:00
9:53 PM,48.0,39.0,71,29.82,10.0,Calm,Calm,-,N/A,,Scattered Clouds,0,2013-12-03 02:53:00
10:53 PM,46.0,39.0,76,29.83,10.0,SW,3.5,-,N/A,,Scattered Clouds,220,2013-12-03 03:53:00
11:53 PM,46.0,39.0,76,29.82,10.0,Calm,Calm,-,N/A,,Mostly Cloudy,0,2013-12-03 04:53:00